Terminal Aerodrome Forecast
Issued by NWS Bismarck, ND

Home | Current Version | Previous Version | Text Only | Print | Product List | Glossary On
Versions: 1 2 3 4 5 6 7 8 9 10 11 12 13 14 15 16 17 18 19 20 21 22 23 24 25 26
000
FTUS43 KBIS 181122
TAFISN
TAF
KISN 181122Z 1812/1912 00000KT 5SM BR OVC004
     FM181400 VRB04KT P6SM BKN008
     FM181800 33005KT P6SM BKN010
     FM182100 36007KT P6SM BKN035
     FM190400 VRB04KT P6SM BKN015=

USA.gov is the U.S. government's official web portal to all federal, state and local government web resources and services.